BEIDOU-3 M9

Last updated on Wed May 15 2019 03:07:46 GMT+0000 (Coordinated Universal Time)

1 43581U 18062A 19133.83111699 -.00000045 00000-0 00000+0 0 9992 2 43581 54.8006 270.9047 0002235 231.8890 160.1295 1.86231767 5378

Satellite not in orbit

BEIDOU-3 M9